EHI
0 2 5 6 7 7 5 2 0 2 4 3 1 0 0 0 0 1 0 0 0 0 0 0 0 0 0 0 0 0 1 2 2 1 1 2 3 2 1 0 0 0 0
0 1 4 6 7 7 5 2 1 2 3 3 2 1 0 0 0 1 1 1 1 1 0 0 0 0 0 0 0 0 0 1 2 1 1 2 2 2 1 0 0 0 0
0 1 4 6 7 7 5 2 1 2 3 3 2 1 0 0 0 1 1 2 2 1 0 0 0 0 0 0 0 0 0 0 1 1 0 1 1 1 1 1 0 0 0
0 1 3 6 7 6 4 3 3 3 3 3 2 1 0 0 0 1 1 2 2 1 1 0 0 0 0 0 0 0 0 0 0 0 0 0 0 0 0 0 0 0 0
0 1 3 5 5 4 3 3 3 3 3 3 2 1 0 1 1 1 2 3 3 2 2 1 0 0 0 0 0 0 0 0 0 0 0 0 0 0 0 0 0 0 1
0 0 1 2 2 2 3 3 3 3 3 3 2 1 0 1 1 2 3 3 4 4 3 1 0 0 0 0 0 0 0 0 0 0 0 0 0 0 0 0 0 0 1
0 0 0 0 0 1 2 3 3 3 3 3 3 1 0 0 1 2 3 3 3 4 3 1 0 0 0 0 0 0 0 0 0 0 0 0 0 0 0 0 0 0 1
0 0 0 0 0 0 1 2 3 3 3 4 4 3 2 2 1 2 3 3 3 3 3 1 0 0 0 0 0 0 0 0 0 0 0 0 0 0 0 0 0 0 0
0 0 0 0 0 0 0 1 1 2 2 3 3 4 4 4 3 2 2 3 3 3 2 1 0 0 0 0 0 0 0 0 0 0 0 0 0 0 0 0 0 0 0
0 0 1 1 1 0 0 0 0 1 1 1 2 3 4 4 3 2 2 3 3 3 2 1 0 0 0 0 0 0 0 0 0 0 0 0 0 0 0 0 0 0 0
1 1 2 2 2 1 1 1 0 0 0 0 1 1 2 3 2 1 1 2 2 2 2 1 0 0 0 0 0 0 0 0 0 0 0 0 0 0 0 0 0 0 0
1 2 2 3 3 3 2 2 2 1 0 0 0 1 1 1 1 0 0 1 1 1 1 0 0 0 0 0 0 0 0 0 0 0 0 0 0 0 0 0 0 0 0
0 1 2 2 3 3 3 3 4 3 1 0 0 0 0 0 0 0 0 0 1 1 0 0 0 0 0 0 0 0 0 0 0 0 0 0 0 0 0 0 0 0 0
0 1 2 3 3 2 3 3 4 3 1 0 0 0 0 0 0 0 0 0 1 1 1 1 0 0 0 0 0 0 0 0 0 0 0 0 0 0 0 0 0 0 0
1 2 3 3 3 3 3 3 3 1 0 0 0 0 0 0 0 0 0 0 1 1 1 1 0 0 0 0 0 0 0 0 0 0 0 0 0 0 0 0 0 0 0
1 2 3 3 3 3 3 3 3 1 0 0 0 0 0 0 0 0 0 0 0 0 1 1 0 0 0 0 0 0 0 0 0 0 0 0 0 0 0 0 0 0 0
0 1 3 3 3 3 3 3 3 2 1 0 0 0 0 0 0 0 0 0 0 0 0 0 0 0 0 0 0 0 0 0 0 0 0 0 0 0 0 0 0 0 0
0 1 2 3 3 3 3 3 3 3 1 0 0 0 0 0 0 0 0 0 0 0 0 0 0 0 0 0 0 0 0 0 0 0 0 0 0 0 0 0 0 0 0
0 0 1 2 3 3 3 3 3 3 2 1 0 0 0 0 0 0 0 0 0 0 0 0 0 0 0 0 0 0 0 0 0 0 0 0 0 0 0 0 0 0 0
0 0 0 1 2 3 3 3 3 3 2 1 0 0 0 0 0 0 0 0 0 0 0 0 0 0 0 0 0 0 0 0 0 0 0 0 0 0 0 0 0 0 0
0 0 0 0 1 2 3 3 3 3 1 0 0 0 0 0 0 0 0 0 0 0 0 0 0 0 0 0 0 0 0 0 0 0 0 0 0 0 0 0 0 0 0
0 0 0 0 0 1 3 3 3 3 1 0 0 0 0 0 0 0 0 0 0 0 0 0 0 0 0 0 0 0 0 0 0 0 0 0 0 0 0 0 0 0 0
0 0 0 0 0 1 2 3 3 3 2 1 0 0 0 0 0 0 0 0 0 0 0 0 0 0 0 0 0 0 0 0 0 0 0 0 0 0 0 0 0 0 0
0 0 0 0 0 1 2 3 3 3 2 1 0 0 0 0 0 0 0 0 0 0 0 0 0 0 0 0 0 0 0 0 0 0 0 0 0 0 0 0 0 0 0
0 0 0 0 0 0 1 2 2 1 1 0 0 0 0 0 0 0 0 0 0 0 0 0 0 0 0 0 0 0 0 0 0 0 0 0 0 0 0 0 0 0 0
0 0 0 0 0 0 0 1 1 0 0 0 0 0 0 0 0 0 0 0 0 0 0 0 0 0 0 0 0 0 0 0 0 0 0 0 0 0 0 0 0 0 0
Wind_Speed
2 2 5 4 5 6 7 8 8 8 8 8 9 8 8 8 8 7 8 8 7 7 6 6 6 6 7 7 7 8 8 8 8 8 8 8 9 9 8 7 6 7 9
2 2 5 5 5 6 7 8 8 8 8 8 9 8 9 9 9 9 8 9 9 8 7 7 7 7 6 7 7 7 7 7 7 6 6 6 7 7 7 6 5 5 7
2 3 4 5 6 7 8 8 8 9 9 9 9 9 9 9 9 9 10 9 10 9 8 8 8 8 7 6 6 6 6 6 5 4 2 4 5 6 6 6 6 6 6
3 3 4 6 6 7 8 8 9 9 9 9 9 9 9 9 9 9 10 9 10 9 9 9 8 8 7 6 6 6 5 5 4 1 2 3 4 5 5 5 5 5 5
3 3 5 6 7 7 8 8 8 8 8 8 8 8 9 9 9 9 9 9 9 9 9 9 8 8 8 7 6 5 5 4 2 0 2 2 3 5 5 4 5 5 4
3 3 5 6 6 7 7 8 8 8 7 7 7 8 8 8 9 9 8 9 9 9 9 9 8 8 8 7 6 6 5 3 0 1 1 2 2 4 4 4 4 4 4
4 3 4 6 6 6 7 7 7 7 7 7 7 7 8 8 8 8 8 8 8 8 8 8 8 8 8 7 7 6 5 4 1 1 1 1 2 3 3 3 3 3 4
4 3 4 6 7 7 6 6 7 7 7 7 7 7 7 7 8 8 8 8 8 7 8 8 7 7 7 7 7 6 5 4 2 1 1 1 2 1 1 2 2 3 3
4 3 3 3 4 6 7 7 7 7 7 7 7 7 7 7 7 8 8 8 7 7 7 7 7 7 6 6 6 6 5 5 2 2 1 1 2 1 1 1 1 2 3
4 4 4 3 3 3 3 6 7 7 7 7 7 7 6 6 6 7 7 7 7 7 7 7 7 7 6 5 5 5 5 3 2 2 2 2 3 2 0 0 1 2 3
4 4 4 4 4 3 3 4 5 6 6 5 5 6 4 3 3 4 6 7 7 7 7 7 7 6 5 4 4 4 3 2 2 1 2 4 3 2 1 1 2 2 2
4 4 4 4 4 3 2 2 2 3 3 4 3 4 3 3 3 3 5 7 7 7 6 7 6 4 3 2 2 2 1 2 2 1 2 4 3 3 2 2 2 3 3
2 4 4 4 4 3 2 2 2 2 2 3 4 4 3 2 2 2 2 2 3 3 3 3 3 3 3 3 2 2 2 2 1 1 2 4 3 3 3 3 3 3 3
2 3 4 4 3 3 2 2 2 2 2 2 3 4 3 2 2 2 2 2 2 2 2 2 2 3 3 3 3 3 3 2 2 2 2 4 4 3 3 3 2 3 3
2 3 3 3 3 3 2 2 2 2 2 2 3 3 4 3 2 2 2 2 2 2 2 2 2 2 2 3 3 3 3 3 3 2 1 4 4 4 3 3 3 3 2
2 2 3 3 3 3 2 2 2 2 2 2 2 3 4 3 3 2 2 2 2 2 2 2 2 2 2 2 3 3 3 3 3 2 2 2 4 4 3 3 3 2 2
2 2 2 2 3 3 2 2 2 2 2 2 2 3 3 3 3 3 2 2 2 2 2 2 2 2 2 2 2 3 3 3 3 3 3 2 2 3 4 4 3 2 2
2 2 2 2 3 3 2 2 2 2 2 2 2 2 3 3 3 2 2 3 3 2 2 1 2 2 2 2 2 2 2 2 3 3 3 3 2 2 2 4 4 4 3
2 2 2 2 2 2 2 1 2 2 2 2 2 2 3 4 4 3 2 3 3 2 2 1 1 2 2 2 2 2 2 2 2 2 3 3 2 2 2 2 4 5 3
2 2 2 2 2 2 1 1 1 2 2 2 2 3 3 3 4 3 2 3 3 2 2 2 2 2 1 2 2 2 2 2 1 2 2 2 2 2 2 2 1 2 3
1 2 2 2 2 2 1 1 1 2 2 2 2 3 3 3 3 3 2 3 2 2 2 2 2 2 1 2 2 2 2 1 1 1 1 2 2 2 3 2 2 1 1
1 1 1 1 2 2 1 1 2 2 1 2 2 2 3 3 3 3 3 2 2 2 2 2 2 2 2 2 2 2 2 2 1 1 1 1 1 1 2 3 2 2 2
1 2 2 2 2 2 1 1 1 1 1 1 2 2 3 3 3 3 3 3 2 2 2 2 3 3 2 2 2 2 2 2 2 1 1 1 1 1 2 2 3 3 3
1 2 2 2 2 2 1 1 1 1 2 2 2 2 3 3 3 3 3 3 2 2 2 2 2 2 3 2 2 2 3 3 3 2 1 1 2 2 2 2 2 3 3
1 1 2 2 2 2 1 2 2 2 2 2 2 2 3 2 3 3 3 3 3 2 2 2 2 2 2 2 2 2 2 2 3 3 3 2 2 2 2 2 2 2 3
1 1 1 2 1 2 2 2 2 2 2 3 2 2 2 2 2 3 3 3 3 3 3 2 2 3 2 2 2 2 2 2 2 3 3 4 3 2 3 2 2 2 3
Wind_Direction
35 22 20 21 40 44 45 49 52 58 59 62 62 61 60 59 59 56 54 54 61 73 79 81 82 84 83 83 85 88 85 83 82 86 91 93 94 95 95 97 104 102 97
16 39 41 34 46 49 51 53 55 58 59 61 61 59 57 57 57 57 57 57 59 68 74 74 71 74 77 80 79 82 85 84 83 82 91 101 98 99 98 89 82 93 102
43 59 66 37 48 51 53 57 58 57 58 59 60 58 58 59 59 58 57 57 57 59 65 71 70 68 72 79 80 79 79 82 83 83 110 111 104 101 105 103 101 102 106
53 62 62 43 50 55 56 58 58 56 55 56 59 58 58 59 58 58 57 57 57 57 58 64 68 65 67 68 71 76 76 76 71 81 122 99 103 101 108 111 112 113 113
66 61 56 42 49 55 59 59 59 56 54 54 58 56 56 57 57 56 56 58 57 56 56 56 60 62 59 60 63 68 72 70 49 135 101 99 99 101 109 113 116 116 113
71 62 61 42 47 52 56 58 57 58 59 59 59 56 55 56 56 55 54 54 55 55 55 53 54 58 55 52 55 61 62 54 241 104 101 105 107 99 116 114 114 116 118
65 59 63 43 43 47 52 54 52 55 57 61 61 59 54 53 53 52 52 54 52 53 55 54 53 56 53 50 49 53 48 14 20 77 104 105 91 90 129 133 129 128 131
61 55 63 49 43 41 44 47 48 49 51 55 58 59 56 52 52 52 51 52 49 50 51 51 50 54 53 49 44 41 31 360 25 50 84 105 73 86 151 157 153 141 139
61 54 52 56 55 45 42 41 44 43 46 49 51 53 52 50 49 50 47 47 46 48 48 47 46 47 47 43 40 36 27 358 9 36 38 55 36 356 234 194 180 176 162
55 47 40 43 44 47 53 43 38 38 41 43 44 40 42 47 47 44 43 41 42 44 46 45 42 40 40 39 36 26 8 333 31 32 25 41 19 350 312 271 213 209 197
46 38 30 31 34 32 38 45 41 35 34 38 43 37 36 47 52 50 44 38 40 40 42 42 39 34 32 43 36 10 334 349 4 9 27 19 358 338 304 283 261 240 220
34 28 25 22 19 24 28 37 39 32 27 26 27 28 28 32 34 38 47 36 35 35 38 36 28 22 4 28 31 329 334 353 345 359 17 358 340 329 314 293 277 256 231
34 25 18 15 10 11 13 13 25 28 21 21 22 13 15 30 33 31 33 38 36 26 32 27 18 17 12 4 347 348 351 344 344 352 9 354 336 319 304 302 291 270 245
36 21 13 10 4 1 2 9 16 26 22 21 17 8 4 16 18 17 9 7 8 9 6 2 3 16 8 3 358 355 352 342 335 337 5 355 340 322 300 294 295 287 261
32 21 13 7 3 0 1 10 21 25 27 30 22 12 6 8 4 4 4 360 0 358 353 350 352 7 1 360 1 356 351 343 331 325 346 5 344 331 311 300 292 290 275
22 15 13 11 3 1 3 6 18 25 21 26 26 16 14 9 360 353 357 355 354 348 345 339 344 352 352 349 356 357 351 341 338 331 321 352 1 351 346 339 319 299 293
15 11 17 14 8 6 9 10 19 27 21 23 20 13 15 8 355 352 344 345 350 342 338 339 346 348 347 346 353 355 351 350 343 333 324 318 336 5 2 357 351 335 329
9 9 18 19 16 17 18 18 22 25 32 28 20 12 13 4 353 348 346 344 339 333 331 336 329 333 336 336 339 345 345 346 345 343 338 334 333 334 10 13 10 3 356
10 5 16 19 18 21 18 23 35 31 31 27 24 20 8 2 353 350 346 343 330 324 328 330 325 323 325 330 328 331 331 332 344 346 351 351 347 340 340 25 22 6 352
19 8 9 18 16 14 14 19 26 32 24 22 21 17 7 358 354 351 347 339 331 327 333 328 327 328 320 325 323 320 316 319 332 347 344 348 351 348 343 347 355 10 6
17 2 0 5 9 8 355 336 340 357 0 7 14 8 1 357 350 351 347 336 331 326 327 326 321 311 323 313 295 302 290 289 328 344 343 344 6 6 359 350 352 344 350
343 331 334 348 352 354 344 324 323 327 328 343 354 359 356 353 351 346 347 334 330 328 333 332 323 298 302 305 288 279 267 234 182 338 340 349 357 9 11 358 350 342 337
314 316 317 328 328 332 331 321 325 314 308 325 346 347 350 346 348 344 340 337 332 331 325 325 312 298 282 296 308 287 273 269 313 249 299 320 337 345 348 357 348 341 337
299 315 312 311 318 323 309 288 296 302 310 323 319 318 328 341 347 345 334 332 324 321 316 309 306 297 280 278 297 298 298 301 280 279 251 297 320 321 325 329 338 335 331
304 318 313 303 312 315 303 286 276 286 302 306 303 307 322 333 341 342 333 330 318 311 309 306 305 294 280 277 285 286 282 287 278 275 279 280 283 293 305 308 312 321 327
318 326 311 300 301 299 291 283 277 284 292 295 302 308 312 316 323 330 327 322 313 311 304 296 292 286 280 274 278 280 275 272 277 279 281 282 288 299 298 294 296 308 317